Location: Unspecified
(0.0000°N, 0.0000°E)
Time: 20:20:47
(UTC+00:00)

Vanguard 1 - Pass Details

Date: 16 June 2025
Orbit: 649 x 3822 km, 34.2° (Epoch: 12 July)

Event Time Altitude Azimuth Distance (km) Brightness Sun altitude
Rises 21:38:00 0° 265° (W) 5,990 14.5 -48.2°
Reaches altitude 10° 21:47:02 10° 233° (SW) 3,949 13.2 -50.0°
Enters shadow 21:47:24 10° 231° (SW) 3,889 13.1 -50.0°
